Time,TemperatureF,DewpointF,PressureIn,WindDirection,WindDirectionDegrees,WindSpeedMPH,WindSpeedGustMPH,Humidity,HourlyPrecipIn,Conditions,Clouds,dailyrainin,SoftwareType,DateUTC
2013-04-24 04:00:00,38.0,-99.9,29.96,NW,310,21.0,-999.0,-999,-99.99,,,-99.99,,2013-04-24 04:00:00,
2013-04-24 04:23:00,38.0,-99.9,29.96,NW,310,21.0,-999.0,-999,-99.99,,,-99.99,,2013-04-24 04:23:00,
2013-04-24 04:33:00,38.0,-99.9,29.96,NW,310,21.0,-999.0,-999,-99.99,,,-99.99,,2013-04-24 04:33:00,
2013-04-24 04:43:00,38.0,-99.9,29.96,NW,310,21.0,-999.0,-999,-99.99,,,-99.99,,2013-04-24 04:43:00,
2013-04-24 04:53:00,38.0,-99.9,29.96,NW,310,21.0,-999.0,-999,-99.99,,,-99.99,,2013-04-24 04:53:00,
2013-04-24 05:00:00,38.0,-99.9,29.96,NW,310,18.0,-999.0,-999,-99.99,,,-99.99,,2013-04-24 05:00:00,
2013-04-24 05:22:00,38.0,-99.9,29.96,NW,310,18.0,-999.0,-999,-99.99,,,-99.99,,2013-04-24 05:22:00,
2013-04-24 05:32:00,38.0,-99.9,29.96,NW,310,18.0,-999.0,-999,-99.99,,,-99.99,,2013-04-24 05:32:00,
2013-04-24 05:42:00,38.0,-99.9,29.96,NW,310,18.0,-999.0,-999,-99.99,,,-99.99,,2013-04-24 05:42:00,
2013-04-24 05:52:00,38.0,-99.9,29.96,NW,310,18.0,-999.0,-999,-99.99,,,-99.99,,2013-04-24 05:52:00,
2013-04-24 06:00:00,37.0,-99.9,29.97,NW,310,14.0,-999.0,-999,-99.99,,,-99.99,,2013-04-24 06:00:00,
2013-04-24 06:22:00,37.0,-99.9,29.97,NW,310,14.0,-999.0,-999,-99.99,,,-99.99,,2013-04-24 06:22:00,
2013-04-24 06:33:00,37.0,-99.9,29.97,NW,310,14.0,-999.0,-999,-99.99,,,-99.99,,2013-04-24 06:33:00,
2013-04-24 06:42:00,37.0,-99.9,29.97,NW,310,14.0,-999.0,-999,-99.99,,,-99.99,,2013-04-24 06:42:00,
2013-04-24 06:52:00,37.0,-99.9,29.97,NW,310,14.0,-999.0,-999,-99.99,,,-99.99,,2013-04-24 06:52:00,
2013-04-24 07:00:00,38.0,-99.9,29.96,WNW,290,18.0,-999.0,-999,-99.99,,,-99.99,,2013-04-24 07:00:00,
2013-04-24 07:22:00,38.0,-99.9,29.96,WNW,290,18.0,-999.0,-999,-99.99,,,-99.99,,2013-04-24 07:22:00,
2013-04-24 07:32:00,38.0,-99.9,29.96,WNW,290,18.0,-999.0,-999,-99.99,,,-99.99,,2013-04-24 07:32:00,
2013-04-24 07:42:00,38.0,-99.9,29.96,WNW,290,18.0,-999.0,-999,-99.99,,,-99.99,,2013-04-24 07:42:00,
2013-04-24 07:52:00,38.0,-99.9,29.96,WNW,290,18.0,-999.0,-999,-99.99,,,-99.99,,2013-04-24 07:52:00,
2013-04-24 08:00:00,38.0,-99.9,29.96,West,280,20.0,-999.0,-999,-99.99,,,-99.99,,2013-04-24 08:00:00,
2013-04-24 08:22:00,38.0,-99.9,29.96,West,280,20.0,-999.0,-999,-99.99,,,-99.99,,2013-04-24 08:22:00,
2013-04-24 08:33:00,38.0,-99.9,29.96,West,280,20.0,-999.0,-999,-99.99,,,-99.99,,2013-04-24 08:33:00,
2013-04-24 08:42:00,38.0,-99.9,29.96,West,280,20.0,-999.0,-999,-99.99,,,-99.99,,2013-04-24 08:42:00,
2013-04-24 08:52:00,38.0,-99.9,29.96,West,280,20.0,-999.0,-999,-99.99,,,-99.99,,2013-04-24 08:52:00,
2013-04-24 09:00:00,38.0,-99.9,29.99,West,280,15.0,-999.0,-999,-99.99,,,-99.99,,2013-04-24 09:00:00,
2013-04-24 09:22:00,38.0,-99.9,29.99,West,280,15.0,-999.0,-999,-99.99,,,-99.99,,2013-04-24 09:22:00,
2013-04-24 09:33:00,38.0,-99.9,29.99,West,280,15.0,-999.0,-999,-99.99,,,-99.99,,2013-04-24 09:33:00,
2013-04-24 09:42:00,38.0,-99.9,29.99,West,280,15.0,-999.0,-999,-99.99,,,-99.99,,2013-04-24 09:42:00,
2013-04-24 09:53:00,38.0,-99.9,29.99,West,280,15.0,-999.0,-999,-99.99,,,-99.99,,2013-04-24 09:53:00,
2013-04-24 10:00:00,38.0,-99.9,29.99,NW,310,16.0,-999.0,-999,-99.99,,,-99.99,,2013-04-24 10:00:00,
2013-04-24 10:23:00,38.0,-99.9,29.99,NW,310,16.0,-999.0,-999,-99.99,,,-99.99,,2013-04-24 10:23:00,
2013-04-24 10:33:00,38.0,-99.9,29.99,NW,310,16.0,-999.0,-999,-99.99,,,-99.99,,2013-04-24 10:33:00,
2013-04-24 10:42:00,38.0,-99.9,29.99,NW,310,16.0,-999.0,-999,-99.99,,,-99.99,,2013-04-24 10:42:00,
2013-04-24 10:53:00,38.0,-99.9,29.99,NW,310,16.0,-999.0,-999,-99.99,,,-99.99,,2013-04-24 10:53:00,
2013-04-24 11:00:00,37.0,-99.9,30.00,NW,310,14.0,-999.0,-999,-99.99,,,-99.99,,2013-04-24 11:00:00,
2013-04-24 11:22:00,37.0,-99.9,30.00,NW,310,14.0,-999.0,-999,-99.99,,,-99.99,,2013-04-24 11:22:00,
2013-04-24 11:32:00,37.0,-99.9,30.00,NW,310,14.0,-999.0,-999,-99.99,,,-99.99,,2013-04-24 11:32:00,
2013-04-24 11:43:00,37.0,-99.9,30.00,NW,310,14.0,-999.0,-999,-99.99,,,-99.99,,2013-04-24 11:43:00,
2013-04-24 11:53:00,37.0,-99.9,30.00,NW,310,14.0,-999.0,-999,-99.99,,,-99.99,,2013-04-24 11:53:00,
2013-04-24 12:00:00,36.0,-99.9,30.00,NNE,30,14.0,-999.0,-999,-99.99,,,-99.99,,2013-04-24 12:00:00,
2013-04-24 12:22:00,36.0,-99.9,30.00,NNE,30,14.0,-999.0,-999,-99.99,,,-99.99,,2013-04-24 12:22:00,
2013-04-24 12:32:00,36.0,-99.9,30.00,NNE,30,14.0,-999.0,-999,-99.99,,,-99.99,,2013-04-24 12:32:00,
2013-04-24 12:43:00,36.0,-99.9,30.00,NNE,30,14.0,-999.0,-999,-99.99,,,-99.99,,2013-04-24 12:43:00,
2013-04-24 12:52:00,36.0,-99.9,30.00,NNE,30,14.0,-999.0,-999,-99.99,,,-99.99,,2013-04-24 12:52:00,
2013-04-24 13:00:00,37.0,-99.9,30.00,North,350,9.0,-999.0,-999,-99.99,,,-99.99,,2013-04-24 13:00:00,
2013-04-24 13:22:00,37.0,-99.9,30.00,North,350,9.0,-999.0,-999,-99.99,,,-99.99,,2013-04-24 13:22:00,
2013-04-24 13:32:00,37.0,-99.9,30.00,North,350,9.0,-999.0,-999,-99.99,,,-99.99,,2013-04-24 13:32:00,
2013-04-24 13:42:00,37.0,-99.9,30.00,North,350,9.0,-999.0,-999,-99.99,,,-99.99,,2013-04-24 13:42:00,
2013-04-24 13:52:00,37.0,-99.9,30.00,North,350,9.0,-999.0,-999,-99.99,,,-99.99,,2013-04-24 13:52:00,
2013-04-24 20:00:00,37.0,-99.9,30.04,SW,220,11.0,-999.0,-999,-99.99,,,-99.99,,2013-04-24 20:00:00,
2013-04-24 20:42:00,37.0,-99.9,30.04,SW,220,11.0,-999.0,-999,-99.99,,,-99.99,,2013-04-24 20:42:00,
2013-04-24 20:52:00,37.0,-99.9,30.04,SW,220,11.0,-999.0,-999,-99.99,,,-99.99,,2013-04-24 20:52:00,
2013-04-24 21:00:00,38.0,-99.9,30.03,SSW,200,13.0,-999.0,-999,-99.99,,,-99.99,,2013-04-24 21:00:00,
2013-04-24 21:22:00,38.0,-99.9,30.03,SSW,200,13.0,-999.0,-999,-99.99,,,-99.99,,2013-04-24 21:22:00,
2013-04-24 21:33:00,38.0,-99.9,30.03,SSW,200,13.0,-999.0,-999,-99.99,,,-99.99,,2013-04-24 21:33:00,
2013-04-24 21:43:00,38.0,-99.9,30.03,SSW,200,13.0,-999.0,-999,-99.99,,,-99.99,,2013-04-24 21:43:00,
2013-04-24 21:53:00,38.0,-99.9,30.03,SSW,200,13.0,-999.0,-999,-99.99,,,-99.99,,2013-04-24 21:53:00,
2013-04-24 22:00:00,38.0,-99.9,30.03,South,190,14.0,-999.0,-999,-99.99,,,-99.99,,2013-04-24 22:00:00,
2013-04-24 22:22:00,38.0,-99.9,30.03,South,190,14.0,-999.0,-999,-99.99,,,-99.99,,2013-04-24 22:22:00,
2013-04-24 22:33:00,38.0,-99.9,30.03,South,190,14.0,-999.0,-999,-99.99,,,-99.99,,2013-04-24 22:33:00,
2013-04-24 22:42:00,38.0,-99.9,30.03,South,190,14.0,-999.0,-999,-99.99,,,-99.99,,2013-04-24 22:42:00,
2013-04-24 22:53:00,38.0,-99.9,30.03,South,190,14.0,-999.0,-999,-99.99,,,-99.99,,2013-04-24 22:53:00,
2013-04-24 23:00:00,39.0,-99.9,30.02,South,190,14.0,-999.0,-999,-99.99,,,-99.99,,2013-04-24 23:00:00,
2013-04-24 23:22:00,39.0,-99.9,30.02,South,190,14.0,-999.0,-999,-99.99,,,-99.99,,2013-04-24 23:22:00,
2013-04-24 23:32:00,39.0,-99.9,30.02,South,190,14.0,-999.0,-999,-99.99,,,-99.99,,2013-04-24 23:32:00,
2013-04-24 23:42:00,39.0,-99.9,30.02,South,190,14.0,-999.0,-999,-99.99,,,-99.99,,2013-04-24 23:42:00,
2013-04-24 23:52:00,39.0,-99.9,30.02,South,190,14.0,-999.0,-999,-99.99,,,-99.99,,2013-04-24 23:52:00,